Weather History for CYUS - April, 2013

Change the Weather History Date:

Saturday, April 27, 2013

  Actual Average Record
Temperature  
Mean Temperature -9 °F -  
Max Temperature -2 °F - - ()
Min Temperature -16 °F - - ()
Degree Days  
Heating Degree Days 74    
Moisture  
Dew Point -    
Average Humidity    
Maximum Humidity    
Minimum Humidity    
Precipitation  
Precipitation 0.00 in - - ()
Sea Level Pressure  
Sea Level Pressure 29.91 in    
Wind  
Wind Speed 8 mph ()    
Max Wind Speed 14 mph    
Max Gust Speed -    
Visibility 7.1 miles    
Events      
T = Trace of Precipitation, MM = Missing Value Source: Averaged Metar Reports

Daily Weather History Graph

Daily Weather History Graph

Search for Another Location

Airport or City:

Trip Planner

Search our weather history database for the weather conditions in past years. The results will help you decide how hot, cold, wet, or windy it might be!

Date:

Astronomy

Apr. 27, 2013 Rise Set
Actual Time 4:19 AM CDT 10:06 PM CDT
Civil Twilight 2:32 AM CDT 11:59 PM CDT
Nautical Twilight Sun does not set Sun does not set
Astronomical Twilight Sun does not set Sun does not set
Moon 12:33 AM CDT (4/27) 4:26 AM CDT (4/27)
Length of Visible Light 21h 26m
Length of Day
17h 47m
Waning Gibbous, 95% of the Moon is Illuminated
Apr 27
Waning Gibbous
May 2
Last Quarter
May 9
New
May 17
First Quarter
May 24
Full

Hourly Weather History & Observations

Time (CDT) Temp. Windchill Dew Point Humidity Pressure Visibility Wind Dir Wind Speed Gust Speed Precip Events Conditions
12:00 AM -4.0 °F -23.7 °F - N/A% 29.84 in 3.0 mi South 13.8 mph - N/A   Unknown
12:04 AM -4.0 °F -23.7 °F - N/A% 29.82 in 3.0 mi South 13.8 mph - N/A   Unknown
12:22 AM -4.0 °F -22.1 °F - N/A% 29.82 in 1.2 mi SSW 11.5 mph - N/A   Unknown
12:24 AM -4.0 °F -21.2 °F - N/A% 29.82 in 1.2 mi SSW 10.4 mph - N/A   Unknown
12:44 AM -4.0 °F -20.2 °F - N/A% 29.82 in 1.1 mi SSW 9.2 mph - N/A   Unknown
12:59 AM -4.0 °F -17.8 °F - N/A% 29.83 in 1.5 mi SSW 6.9 mph - N/A   Unknown
1:00 AM -4 °F - - % 29.86 in 2 mi SSW 8.1 mph - -  
1:00 AM -4.0 °F -17.8 °F - N/A% 29.86 in 1.5 mi SSW 6.9 mph - N/A   Unknown
1:02 AM -4.0 °F -19.0 °F - N/A% 29.83 in 1.4 mi SW 8.1 mph - N/A   Unknown
1:23 AM -2.2 °F -18.0 °F - N/A% 29.83 in 2.6 mi SW 9.2 mph - N/A   Unknown
1:40 AM -4.0 °F -17.8 °F - N/A% 29.84 in 6.0 mi SW 6.9 mph - N/A   Unknown
1:48 AM -4.0 °F -14.6 °F - N/A% 29.84 in 6.0 mi WSW 4.6 mph - N/A   Unknown
2:00 AM -4.0 °F -14.6 °F - N/A% 29.87 in 3.5 mi WSW 4.6 mph - N/A   Unknown
3:00 AM -5.8 °F -18.4 °F - N/A% 29.88 in 9.0 mi SW 5.8 mph - N/A   Unknown
4:00 AM -7 °F - - % 29.89 in 9 mi SW 6.9 mph - -  
4:00 AM -5.8 °F -19.9 °F - N/A% 29.89 in 9.0 mi SW 6.9 mph - N/A   Unknown
4:46 AM -5.8 °F -22.4 °F - N/A% 29.87 in 9.0 mi SW 9.2 mph - N/A   Unknown
5:00 AM -5.8 °F -22.4 °F - N/A% 29.90 in 9.0 mi SW 9.2 mph - N/A   Unknown
5:27 AM -7.6 °F -23.4 °F - N/A% 29.88 in 9.0 mi SW 8.1 mph - N/A   Unknown
6:00 AM -7.6 °F -22.1 °F - N/A% 29.91 in 9.0 mi SW 6.9 mph - N/A   Unknown
7:00 AM -8 °F - - % 29.92 in 9 mi SW 5.8 mph - -  
7:00 AM -7.6 °F -22.1 °F - N/A% 29.92 in 9.0 mi SW 6.9 mph - N/A   Unknown
8:00 AM -9.4 °F -22.7 °F - N/A% 29.93 in 9.0 mi ESE 5.8 mph - N/A   Unknown
9:00 AM -9.4 °F -24.3 °F - N/A% 29.94 in 9.0 mi ESE 6.9 mph - N/A   Unknown
10:00 AM -8 °F - - % 29.94 in 9 mi SE 6.9 mph - -  
10:00 AM -7.6 °F -22.1 °F - N/A% 29.94 in 9.0 mi SSE 6.9 mph - N/A   Unknown
11:00 AM -5.8 °F -18.4 °F - N/A% 29.95 in 9.0 mi SE 5.8 mph - N/A   Unknown
12:00 PM -4.0 °F -16.3 °F - N/A% 29.95 in 9.0 mi SE 5.8 mph - N/A   Unknown
1:00 PM -4 °F - - % 29.96 in 9 mi South 5.8 mph - -  
1:00 PM -4.0 °F -17.8 °F - N/A% 29.96 in 9.0 mi South 6.9 mph - N/A   Unknown
2:00 PM -2.2 °F -14.2 °F - N/A% 29.96 in 9.0 mi SSE 5.8 mph - N/A   Unknown
3:00 PM -2.2 °F -16.8 °F - N/A% 29.97 in 9.0 mi SSE 8.1 mph - N/A   Unknown
4:00 PM -2 °F - - % 29.97 in 9 mi SSE 10.4 mph - -  
4:00 PM -2.2 °F -18.9 °F - N/A% 29.97 in 9.0 mi SSE 10.4 mph - N/A   Unknown
5:00 PM -2.2 °F -18.0 °F - N/A% 29.98 in 9.0 mi SSE 9.2 mph - N/A   Unknown
6:00 PM -2.2 °F -18.0 °F - N/A% 29.98 in 9.0 mi SE 9.2 mph - N/A   Unknown
7:00 PM -6 °F - - % 29.98 in 9 mi SE 9.2 mph - -  
7:00 PM -5.8 °F -21.2 °F - N/A% 29.98 in 9.0 mi SE 8.1 mph - N/A   Unknown
8:00 PM -7.6 °F -26.6 °F - N/A% 29.98 in 9.0 mi SSE 11.5 mph - N/A   Unknown
9:00 PM -9.4 °F -27.9 °F - N/A% 29.99 in 9.0 mi ESE 10.4 mph - N/A   Unknown
10:00 PM -13 °F - - % 29.99 in 9 mi SE 9.2 mph - -  
10:00 PM -13.0 °F -31.3 °F - N/A% 29.99 in 9.0 mi SE 9.2 mph - N/A   Unknown
11:00 PM -16.6 °F -34.4 °F - N/A% 29.98 in 9.0 mi SE 8.1 mph - N/A   Unknown
11:21 PM -14.8 °F -33.5 °F - N/A% 29.95 in 9.0 mi SE 9.2 mph - N/A   Unknown